Tracking 19706 objects as of 16-Jun-2019
HD Live streaming from Space Station
objects crossing your sky now

THORAD AGENA D DEB

Track THORAD AGENA D DEB now!
10-day predictions


NORAD ID: 42514
Int'l Code: 1970-025RU
Perigee: 1,045.7 km
Apogee: 1,325.5 km
Inclination: 99.3 °
Period: 109.0 minutes
Semi major axis: 7556 km
RCS: Unknown
Launch date: April 8, 1970
Source: United States (US)
Launch site: AIR FORCE WESTERN TEST RANGE (AFWTR)

Note: This is SATELLITE DEBRIS
aabbcc
Your satellite tracking list
Your tracking list is empty




NASA's NSSDC Master Catalog

Two Line Element Set (TLE):
1 42514U 70025RU  19165.41053860 +.00000021 +00000-0 +13284-3 0  9993
2 42514 099.3330 155.7679 0185128 314.1922 044.4113 13.21646410268306
Source of the keplerian elements: AFSPC